This demonstration page uses our WeatherBlox Daily Observations layout. Learn more.

Hourly Observations for January 22, 2020

Temp ( °F °C ) Dew Point ( °F °C ) Humidity (%) Winds ( mph kmh ) Pressure ( in mb ) Visibility ( mi km ) Precip ( " mm )
12:53 am 00:53 Clear 16 -8.9 12 -11.1 84 84 Calm 30.51 1033 10 16.0934 0 0
1:53 am 01:53 Clear 15 -9.4 11 -11.7 84 84 Calm 30.49 1033 10 16.0934 0 0
2:53 am 02:53 Clear 15 -9.4 11 -11.7 84 84 Calm 30.49 1032 10 16.0934 0 0
3:53 am 03:53 Clear 15 -9.4 11 -11.7 84 84 Calm 30.47 1032 10 16.0934 0 0
4:53 am 04:53 Clear 14 -10 9 -12.8 80 80 Calm 30.46 1031 10 16.0934 0 0
5:53 am 05:53 Clear 14 -10 10 -12.2 84 84 Calm 30.45 1031 10 16.0934 0 0
6:53 am 06:53 Clear 16 -8.9 12 -11.1 84 84 E 3 6 30.45 1031 10 16.0934 0 0
7:53 am 07:53 Sunny 16 -8.9 12 -11.1 84 84 ESE 3 6 30.44 1031 10 16.0934 0 0
8:53 am 08:53 Sunny 22 -5.6 16 -8.9 78 78 VRB 3 6 30.44 1031 10 16.0934 0 0
9:53 am 09:53 Sunny 25 -3.9 17 -8.3 72 72 VRB 3 6 30.45 1031 10 16.0934 0 0
10:53 am 10:53 Sunny 31 -0.6 16 -8.9 54 54 VRB 3 6 30.47 1032 10 16.0934 0 0
11:53 am 11:53 Sunny 33 0.6 16 -8.9 49 49 SSW 7 11 30.45 1031 10 16.0934 0 0
12:53 pm 12:53 Sunny 34 1.1 16 -8.9 48 48 VRB 3 6 30.4 1030 10 16.0934 0 0
1:53 pm 13:53 Sunny 35 1.7 16 -8.9 46 46 VRB 5 7 30.38 1029 10 16.0934 0 0
2:53 pm 14:53 Sunny 37 2.8 16 -8.9 42 42 VRB 3 6 30.36 1028 10 16.0934 0 0
3:53 pm 15:53 Sunny 39 3.9 15 -9.4 38 38 VRB 5 7 30.33 1027 10 16.0934 0 0
4:53 pm 16:53 Sunny 39 3.9 15 -9.4 38 38 Calm 30.32 1027 10 16.0934 0 0
5:53 pm 17:53 Clear 35 1.7 15 -9.4 44 44 Calm 30.32 1027 10 16.0934 0 0
6:53 pm 18:53 Clear 31 -0.6 19 -7.2 61 61 Calm 30.32 1027 10 16.0934 0 0
7:53 pm 19:53 Clear 30 -1.1 18 -7.8 61 61 Calm 30.32 1027 10 16.0934 0 0
8:53 pm 20:53 Clear 29 -1.7 20 -6.7 69 69 Calm 30.32 1027 10 16.0934 0 0
9:53 pm 21:53 Clear 28 -2.2 21 -6.1 75 75 Calm 30.3 1026 10 16.0934 0 0
10:53 pm 22:53 Clear 28 -2.2 21 -6.1 75 75 Calm 30.29 1026 10 16.0934 0 0
11:53 pm 23:53 Clear 28 -2.2 21 -6.1 75 75 Calm 30.29 1026 10 16.0934 0 0

Powered by AerisWeather